Time,TemperatureF,DewpointF,PressureIn,WindDirection,WindDirectionDegrees,WindSpeedMPH,WindSpeedGustMPH,Humidity,HourlyPrecipIn,Conditions,Clouds,dailyrainin,SoftwareType,DateUTC
2013-04-28 06:50:00,51.0,38.0,30.09,WNW,290,12.0,-999.0,60,-99.99,,,-99.99,,2013-04-28 13:50:00,
2013-04-28 07:21:00,51.0,38.0,30.09,WNW,290,12.0,-999.0,60,-99.99,,,-99.99,,2013-04-28 14:21:00,
2013-04-28 07:31:00,51.0,38.0,30.09,WNW,290,12.0,-999.0,60,-99.99,,,-99.99,,2013-04-28 14:31:00,
2013-04-28 07:42:00,51.0,38.0,30.09,WNW,290,12.0,-999.0,60,-99.99,,,-99.99,,2013-04-28 14:42:00,
2013-04-28 07:50:00,56.0,37.0,30.09,NW,310,15.0,-999.0,50,-99.99,,,-99.99,,2013-04-28 14:50:00,
2013-04-28 08:32:00,56.0,37.0,30.09,NW,310,15.0,-999.0,50,-99.99,,,-99.99,,2013-04-28 15:32:00,
2013-04-28 08:42:00,56.0,37.0,30.09,NW,310,15.0,-999.0,50,-99.99,,,-99.99,,2013-04-28 15:42:00,
2013-04-28 08:50:00,58.0,37.0,30.10,WNW,300,12.0,-999.0,44,-99.99,,,-99.99,,2013-04-28 15:50:00,
2013-04-28 09:23:00,58.0,37.0,30.10,WNW,300,12.0,-999.0,44,-99.99,,,-99.99,,2013-04-28 16:23:00,
2013-04-28 09:32:00,58.0,37.0,30.10,WNW,300,12.0,-999.0,44,-99.99,,,-99.99,,2013-04-28 16:32:00,
2013-04-28 09:42:00,58.0,37.0,30.10,WNW,300,12.0,-999.0,44,-99.99,,,-99.99,,2013-04-28 16:42:00,
2013-04-28 09:50:00,61.0,36.0,30.10,NW,320,6.0,-999.0,40,-99.99,,,-99.99,,2013-04-28 16:50:00,
2013-04-28 10:21:00,61.0,36.0,30.10,NW,320,6.0,-999.0,40,-99.99,,,-99.99,,2013-04-28 17:21:00,
2013-04-28 10:32:00,61.0,36.0,30.10,NW,320,6.0,-999.0,40,-99.99,,,-99.99,,2013-04-28 17:32:00,
2013-04-28 10:42:00,61.0,36.0,30.10,NW,320,6.0,-999.0,40,-99.99,,,-99.99,,2013-04-28 17:42:00,
2013-04-28 10:50:00,62.0,35.0,30.09,SW,220,5.0,-999.0,36,-99.99,,,-99.99,,2013-04-28 17:50:00,
2013-04-28 11:32:00,62.0,35.0,30.09,SW,220,5.0,-999.0,36,-99.99,,,-99.99,,2013-04-28 18:32:00,
2013-04-28 11:42:00,62.0,35.0,30.09,SW,220,5.0,-999.0,36,-99.99,,,-99.99,,2013-04-28 18:42:00,
2013-04-28 11:50:00,65.0,34.0,30.08,NW,320,7.0,-999.0,31,-99.99,,,-99.99,,2013-04-28 18:50:00,
2013-04-28 12:31:00,65.0,34.0,30.08,NW,320,7.0,-999.0,31,-99.99,,,-99.99,,2013-04-28 19:31:00,
2013-04-28 12:41:00,65.0,34.0,30.08,NW,320,7.0,-999.0,31,-99.99,,,-99.99,,2013-04-28 19:41:00,
2013-04-28 12:50:00,69.0,32.0,30.06,WSW,250,15.0,-999.0,25,-99.99,,,-99.99,,2013-04-28 19:50:00,
2013-04-28 13:22:00,69.0,32.0,30.06,WSW,250,15.0,-999.0,25,-99.99,,,-99.99,,2013-04-28 20:22:00,
2013-04-28 13:32:00,69.0,32.0,30.06,WSW,250,15.0,-999.0,25,-99.99,,,-99.99,,2013-04-28 20:32:00,
2013-04-28 13:41:00,69.0,32.0,30.06,WSW,250,15.0,-999.0,25,-99.99,,,-99.99,,2013-04-28 20:41:00,
2013-04-28 13:50:00,69.0,31.0,30.03,WSW,240,14.0,22.0,24,-99.99,,,-99.99,,2013-04-28 20:50:00,
2013-04-28 14:32:00,69.0,31.0,30.03,WSW,240,14.0,22.0,24,-99.99,,,-99.99,,2013-04-28 21:32:00,
2013-04-28 14:42:00,69.0,31.0,30.03,WSW,240,14.0,22.0,24,-99.99,,,-99.99,,2013-04-28 21:42:00,
2013-04-28 22:50:00,50.0,33.0,29.92,WNW,290,7.0,-999.0,50,-99.99,,,-99.99,,2013-04-29 05:50:00,
2013-04-28 23:32:00,50.0,33.0,29.92,WNW,290,7.0,-999.0,50,-99.99,,,-99.99,,2013-04-29 06:32:00,
2013-04-28 23:42:00,50.0,33.0,29.92,WNW,290,7.0,-999.0,50,-99.99,,,-99.99,,2013-04-29 06:42:00,
2013-04-28 23:50:00,48.0,33.0,29.90,NNW,330,5.0,-999.0,56,-99.99,,,-99.99,,2013-04-29 06:50:00,